Regional Weather Roundup
Issued by NWS Kansas City/Pleasant Hill, MO

Home | Current Version | Previous Version | Text Only | Print | Product List | Glossary On
Versions: 1 2 3 4 5 6 7 8 9 10 11 12 13 14 15 16 17 18 19 20 21 22 23 24 25 26 27 28 29 30 31 32 33 34 35 36 37 38 39 40 41 42 43 44 45 46 47 48 49 50
000
ASUS43 KEAX 270510
RWREAX

WEATHER ROUNDUP FOR EASTERN KANSAS AND NORTHWEST MISSOURI
NATIONAL WEATHER SERVICE KANSAS CITY/PLEASANT HILL MO
1200 AM CDT MON APR 27 2015

KSZ040-057-103>105-MOZ028-029-037-043-270600-
...KANSAS CITY METROPOLITAN AREA...

CITY           SKY/WX    TMP DP  RH WIND       PRES   REMARKS
K.C. INTL      PTCLDY    49  38  65 NE8       30.03S
K.C. DOWNTOWN  PTCLDY    52  37  56 NE9       30.02S
LEES SUMMIT    PTCLDY    50  36  58 NE8       30.03R
OLATHE - IXD   PTCLDY    52  36  54 E8        30.02R
OLATHE - OJC   PTCLDY    51  36  56 E7        30.01R
LAWRENCE       PTCLDY    51  38  60 NE10      30.02R

$$

MOZ001>008-011>017-020>025-030>033-038>040-044>046-053-054-270600-
...NORTHERN AND CENTRAL MISSOURI...

CITY           SKY/WX    TMP DP  RH WIND       PRES   REMARKS
ST. JOSEPH     PTCLDY    52  32  46 NE14      30.06S
MOSBY          PTCLDY    52  37  58 NE6       30.04S
WARRENSBURG    CLEAR     48  36  61 NE8       30.03R
WHITEMAN AFB   CLEAR     48  37  67 NE7       30.02R
CLINTON        PTCLDY    52  37  58 NE9       30.01S
SEDALIA        CLEAR     51  35  54 NE9       30.04R
WARSAW         NOT AVBL
MARSHALL       CLEAR     52  39  62 NE8       30.05S
CHILLICOTHE      N/A     49  37  63 NE5       30.08R
MOBERLY        PTCLDY    46  36  66 NE6       30.07R
KIRKSVILLE     CLEAR     45  35  68 NE6       30.08R

$$

MOZ041-047>049-056>058-063>065-088>090-097-270600-
...EASTERN AND SOUTHERN MISSOURI...

CITY           SKY/WX    TMP DP  RH WIND       PRES   REMARKS
ST. LOUIS INTL PTCLDY    51  35  54 NE5       30.04S
SPIRIT OF STL  CLEAR     44  39  82 CALM      30.04R
COLUMBIA       CLEAR     47  37  68 NE9       30.03S
JEFFERSON CITY CLEAR     52  34  50 NE10      30.02S
MEXICO         PTCLDY    48  41  76 NE6       30.05S
HANNIBAL       CLEAR     48  34  57 CALM      30.08R
ROLLA          PTCLDY    48  36  63 NE10      30.00R
LEBANON        MOCLDY    50  36  57 E8        29.99R
OSAGE BEACH    PTCLDY    50  34  53 E8        30.01R
SPRINGFIELD    CLOUDY    52  38  58 E13       29.95S
BRANSON        CLOUDY    48  46  93 CALM      29.95R
NEVADA         CLOUDY    50  39  66 NE9       29.98S
JOPLIN         CLOUDY    51  45  79 NE7       29.94R
WEST PLAINS    MOCLDY    50  37  61 NE7       29.97S

$$

IAZ060-094-KSZ022-034>040-054-083-096-NEZ052-066-093-270600-
...KANSAS...SOUTHEAST NEBRASKA AND IOWA...

CITY           SKY/WX    TMP DP  RH WIND       PRES   REMARKS
TOPEKA         MOCLDY    50  39  66 E3        30.02R
MANHATTAN      MOCLDY    46  41  82 NE5       30.02R
EMPORIA        MOCLDY    50  40  68 NE7       30.00R
CHANUTE        CLOUDY    52  43  71 NE10      29.95S
WICHITA        CLOUDY    53  45  74 NE9       29.95S
OMAHA          PTCLDY    50  35  56 CALM      30.10S
LINCOLN        CLEAR     41  36  82 NW3       30.10S
FALLS CITY     PTCLDY    50  32  50 NE7       30.07R
LAMONI         CLEAR     47  31  53 NE6       30.08S
DES MOINES     CLEAR     48  28  46 CALM      30.10R

$$




USA.gov is the U.S. government's official web portal to all federal, state and local government web resources and services.